Regional Weather Roundup
Issued by NWS

Home | Current Version | Previous Version | Graphics & Text | Print | Product List | Glossary On
Versions: 1 2 3 4 5 6 7 8 9 10 11 12 13 14 15 16 17 18 19 20 21 22 23 24 25 26 27 28 29 30 31 32 33 34 35 36 37 38 39 40 41 42 43 44 45 46 47 48 49 50
273
ASUS45 KSLC 250410
RWRUT

UTAH REGIONAL WEATHER ROUNDUP
NATIONAL WEATHER SERVICE SALT LAKE CITY UT
900 PM MST FRI FEB 24 2017

UTZ001>011-023>025-250500-

NORTHERN UTAH

CITY           SKY/WX    TMP DP  RH WIND       PRES   REMARKS
BRIGHAM CITY     N/A     26  17  69 CALM      30.14S
HILL AFB       CLEAR     20  11  66 E12       30.12R WCI   9
LOGAN          MOCLDY    22  18  85 CALM      30.14R
OGDEN          PTCLDY    21  13  71 S8        30.12S WCI  11
SALT LAKE CITY PTCLDY    26  15  63 SE8       30.14R WCI  18
TOOELE VALLEY  CLOUDY    25  19  80 SE8       30.15R WCI  16
WENDOVER       MOCLDY    28   7  40 CALM      30.13S
HEBER CITY     PTCLDY     9   3  78 CALM      30.10R
WEST JORDAN    PTCLDY    25  20  82 SE5       30.14R WCI  20

$$

UTZ011>015-024>027-250500-

CENTRAL/NORTHEAST UTAH

CITY           SKY/WX    TMP DP  RH WIND       PRES   REMARKS
PROVO AIRPORT  PTCLDY    17  15  92 E3        30.16R
MOAB/CANYONLAN CLEAR     28  10  46 W8        30.07R WCI  20
DELTA          CLEAR     21  12  68 E3        30.12S
PRICE          CLEAR     19  10  68 N3        30.06R
RICHFIELD      CLEAR     21  14  73 CALM      30.15R
ROOSEVELT      PTCLDY    25  14  63 SW3       30.10R
VERNAL         MOCLDY    18  13  80 NW5       30.08R WCI  11

$$

UTZ013>016-019>022-027-250500-

SOUTHERN UTAH

CITY           SKY/WX    TMP DP  RH WIND       PRES   REMARKS
BRYCE CANYON   CLEAR      1  -5  75 W7        30.04R WCI -12
CEDAR CITY     CLEAR     24  10  55 SW8       30.06R WCI  15
MILFORD        CLEAR     23  16  74 NE5       30.10R WCI  17
ST GEORGE      PTCLDY    39  12  33 CALM      30.15R
HANKSVILLE     CLEAR     32   3  29 NW8       30.13R WCI  25
KANAB          CLEAR     28  14  54 S5        30.15R WCI  23
BLANDING       CLEAR     21  12  70 N6        30.12R WCI  13

$$

REGIONAL REPORTS     COLORADO/ARIZONA

CITY           SKY/WX    TMP DP  RH WIND       PRES   REMARKS
CRAIG, CO      CLOUDY    10   6  84 CALM      30.05R
GRAND JUNCTION PTCLDY    21  17  84 CALM      30.09R
RIFLE, CO      LGT SNOW  23  22  96 W5        30.07R VSB 3/4 WCI  17
MONTROSE, CO   CLOUDY    21  15  78 S6        30.09R WCI  13
CORTEZ, CO     PTCLDY    24  16  71 CALM      30.07R
COLORADO CITY    N/A     25  14  63 CALM      30.14R
PAGE, AZ       CLEAR     37  -2  19 W6        30.09R WCI  32
GRAND CANYON   CLEAR     21  13  71 CALM      30.08R
KINGMAN, AZ    CLEAR     32   5  32 SE5       30.13R WCI  27
FLAGSTAFF, AZ  CLEAR     28   9  44 SW8       30.07R WCI  20

$$

REGIONAL REPORTS    NEVADA/IDAHO/WYOMING

CITY           SKY/WX    TMP DP  RH WIND       PRES   REMARKS
LAS VEGAS, NV  PTCLDY    48  12  23 E10       30.11R
ELY, NY        CLEAR      8   0  69 S12       30.05F WCI  -7
ELKO, NV       CLEAR     23  12  62 NW5       30.08S WCI  17
POCATELLO, ID  CLEAR     14   6  70 S12       30.13S WCI   0
BURLEY, ID     MOCLDY    23  11  60 SW9       30.11F WCI  13
FORT BRIDGER,    N/A      8   3  80 W14       30.05R WCI  -8
EVANSTON, WY   CLOUDY     9   2  73 SW5       30.02S WCI   1
ROCK SPRINGS,  CLOUDY    10   4  76 W16       30.00R WCI  -7

$$




USA.gov is the U.S. government's official web portal to all federal, state and local government web resources and services.